Satellite: NOAA-15
Catalog number: 25338
Epoch time: 06313.69142138
Element set: 0739
Inclination: 098.5223 deg
RA of node: 311.6903 deg
Eccentricity: 0.0010041
Arg of perigee: 313.5311 deg
Mean anomaly: 046.5045 deg
Mean motion: 14.24609660 rev/day
Decay rate: -4.0e-07 rev/day^2
Epoch rev: 44143
Checksum: 262
Satellite: RESURS
Catalog number: 25394
Epoch time: 06313.79136993
Element set: 499
Inclination: 098.4732 deg
RA of node: 011.6341 deg
Eccentricity: 0.0002250
Arg of perigee: 096.6894 deg
Mean anomaly: 263.4541 deg
Mean motion: 14.24116600 rev/day
Decay rate: 6.0e-08 rev/day^2
Epoch rev: 43312
Checksum: 285
Satellite: FENGYUN1
Catalog number: 25730
Epoch time: 06313.54820585
Element set: 0871
Inclination: 098.6388 deg
RA of node: 300.6871 deg
Eccentricity: 0.0015319
Arg of perigee: 086.6300 deg
Mean anomaly: 273.6614 deg
Mean motion: 14.11816310 rev/day
Decay rate: -2.01e-06 rev/day^2
Epoch rev: 38652
Checksum: 285
Satellite: OKEAN-0
Catalog number: 25860
Epoch time: 06313.61098361
Element set: 0898
Inclination: 097.7315 deg
RA of node: 321.1614 deg
Eccentricity: 0.0001599
Arg of perigee: 050.2835 deg
Mean anomaly: 309.8509 deg
Mean motion: 14.73402298 rev/day
Decay rate: 1.17e-06 rev/day^2
Epoch rev: 39316
Checksum: 305
Satellite: NOAA-16
Catalog number: 26536
Epoch time: 06313.65587923
Element set: 0130
Inclination: 099.0888 deg
RA of node: 282.1253 deg
Eccentricity: 0.0011256
Arg of perigee: 071.0408 deg
Mean anomaly: 289.1979 deg
Mean motion: 14.12380648 rev/day
Decay rate: -1.51e-06 rev/day^2
Epoch rev: 31611
Checksum: 303
Satellite: NOAA-17
Catalog number: 27453
Epoch time: 06313.70901923
Element set: 0150
Inclination: 098.6076 deg
RA of node: 022.9922 deg
Eccentricity: 0.0011806
Arg of perigee: 016.5694 deg
Mean anomaly: 343.5872 deg
Mean motion: 14.23825372 rev/day
Decay rate: 1.55e-06 rev/day^2
Epoch rev: 22748
Checksum: 301
Satellite: NOAA-18
Catalog number: 28654
Epoch time: 06313.71847863
Element set: 0712
Inclination: 098.8051 deg
RA of node: 253.9694 deg
Eccentricity: 0.0014254
Arg of perigee: 166.5058 deg
Mean anomaly: 193.6485 deg
Mean motion: 14.11005790 rev/day
Decay rate: -1.79e-06 rev/day^2
Epoch rev: 07590
Checksum: 330
/EX
SB KEPS @ AMSAT $ORB06314.M
Orbital Elements 06314.MISC
HR AMSAT ORBITAL ELEMENTS FOR MANNED AND MISCELLANEOUS SATELLITES
FROM WA5QGD FORT WORTH,TX November 10, 2006
Send SUBSCRIBE KEPS/UNSUBSCRIBE KEPS to majordomo at amsat.org only
BID: ORB06314.M
TO ALL RADIO AMATEURS BT
Satellite: HUBBLE
Catalog number: 20580
Epoch time: 06314.86551095
Element set: 737
Inclination: 028.4672 deg
RA of node: 173.6622 deg
Eccentricity: 0.0003567
Arg of perigee: 297.0056 deg
Mean anomaly: 063.0173 deg
Mean motion: 15.00127747 rev/day
Decay rate: 5.50e-06 rev/day^2
Epoch rev: 70714
Checksum: 283
Satellite: UARS
Catalog number: 21701
Epoch time: 06313.94990642
Element set: 0928
Inclination: 056.9758 deg
RA of node: 183.4832 deg
Eccentricity: 0.0105443
Arg of perigee: 127.8315 deg
Mean anomaly: 233.2342 deg
Mean motion: 15.45293397 rev/day
Decay rate: 6.941e-05 rev/day^2
Epoch rev: 83182
Checksum: 316
Satellite: PO-34
Catalog number: 25520
Epoch time: 06313.82742026
Element set: 0620
Inclination: 028.4576 deg
RA of node: 136.7277 deg
Eccentricity: 0.0005384
Arg of perigee: 029.3849 deg
Mean anomaly: 330.7046 deg
Mean motion: 15.16834860 rev/day
Decay rate: 7.43e-06 rev/day^2
Epoch rev: 44418
Checksum: 303
Satellite: ISS
Catalog number: 25544
Epoch time: 06314.82976852
Element set: 33
Inclination: 051.6334 deg
RA of node: 151.7188 deg
Eccentricity: 0.0012021
Arg of perigee: 196.2992 deg
Mean anomaly: 353.4063 deg
Mean motion: 15.77888743 rev/day
Decay rate: 1.5840e-04 rev/day^2
Epoch rev: 45629
Checksum: 317
Satellite: OO-38
Catalog number: 26063
Epoch time: 06313.72944654
Element set: 0764
Inclination: 100.2033 deg
RA of node: 271.0529 deg
Eccentricity: 0.0037233
Arg of perigee: 057.5766 deg
Mean anomaly: 302.9004 deg
Mean motion: 14.35783730 rev/day
Decay rate: 1.3e-07 rev/day^2
Epoch rev: 35556
Checksum: 286
Satellite: NO-45
Catalog number: 26932
Epoch time: 06313.60967869
Element set: 0458
Inclination: 067.0555 deg
RA of node: 352.8303 deg
Eccentricity: 0.0004808
Arg of perigee: 234.2230 deg
Mean anomaly: 125.8424 deg
Mean motion: 14.29539944 rev/day
Decay rate: 5.0e-08 rev/day^2
Epoch rev: 26675
Checksum: 319
Satellite: UWE-1
Catalog number: 28892
Epoch time: 06313.89213897
Element set: 599
Inclination: 098.1468 deg
RA of node: 209.6170 deg
Eccentricity: 0.0018470
Arg of perigee: 076.7490 deg
Mean anomaly: 283.5769 deg
Mean motion: 14.59421237 rev/day
Decay rate: 7.16e-06 rev/day^2
Epoch rev: 5522
Checksum: 343
Satellite: CO-58
Catalog number: 28895
Epoch time: 06313.46685598
Element set: 0581
Inclination: 098.1502 deg
RA of node: 209.3307 deg
Eccentricity: 0.0019059
Arg of perigee: 078.3177 deg
Mean anomaly: 282.0095 deg
Mean motion: 14.59466687 rev/day
Decay rate: 2.0e-08 rev/day^2
Epoch rev: 05504
Checksum: 339
Satellite: NCUBE2
Catalog number: 28897
Epoch time: 06313.70282327
Element set: 142
Inclination: 098.1481 deg
RA of node: 209.5368 deg
Eccentricity: 0.0018355
Arg of perigee: 078.5502 deg
Mean anomaly: 281.7760 deg
Mean motion: 14.59625318 rev/day
Decay rate: 2.31e-06 rev/day^2
Epoch rev: 4735
Checksum: 309
/EX
More information about the Keps
mailing list